Tracking 28790 objects as of 18-Apr-2024
HD Live streaming from Space Station
objects crossing your sky now

STARLINK-5226

Track STARLINK-5226 now!
10-day predictions
STARLINK-5226 is classified as:


NORAD ID: 54056
Int'l Code: 2022-136F
Perigee: 540.7 km
Apogee: 542.9 km
Inclination: 53.2 °
Period: 95.3 minutes
Semi major axis: 6912 km
RCS: Unknown
Launch date: October 20, 2022
Source: United States (US)
Launch site: AIR FORCE EASTERN TEST RANGE (AFETR)
Your satellite tracking list
Your tracking list is empty




NASA's NSSDC Master Catalog

Two Line Element Set (TLE):
1 54056U 22136F   24108.79847024  .00008467  00000-0  52501-3 0  9991
2 54056  53.2179 205.5959 0001589 116.4094 243.7062 15.10512775 82549
Source of the keplerian elements: AFSPC